Location: Marcé
(47.5801°N, 0.3280°W)
Time: 21:58:45
(UTC+01:00)

Altair - Pass Details

Date: 18 December 2021
Orbit: 1501 x 1683 km, 47.2° (Epoch: 20 January)

Event Time Altitude Azimuth Distance (km) Brightness Sun altitude
Rises 14:32:22 0° 256° (WSW) 4,858 10.7 15.9°
Reaches altitude 10° 14:35:31 10° 256° (WSW) 3,850 10.2 15.7°
Maximum altitude 14:45:20 85° 170° (S) 1,586 8.0 15.0°
Drops below altitude 10° 14:54:46 10° 83° (E) 3,710 9.2 14.3°
Sets 14:57:46 0° 83° (E) 4,675 9.7 14.1°
